Погода Пушкинские Горы

Хотите узнать прогноз погоды Пушкинские Горы? Тогда Вам сюда: Погода Пушкинские Горы

Поиск расширенной информации на нашем сайте:

Полезная информация:

Новости сайта



14.11.2019
Обновлён Долгосрочный прогноз погоды по России и другим странам хСССР на ноябрь-декабрь 2019 года.
Опубликованы прогностические карты: Предварительный прогноз на декабрь 2019 года, Предварительный прогноз на январь 2020 года, Предварительная схема синоптических процессов на декабрь 2019 г..

11.11.2019
Обновлены Долгосрочный прогноз погоды по России и другим странам хСССР на ноябрь-декабрь 2019 года и Предварительный прогноз на зиму 2019/2020 годов

04.11.2019
Опубликован Долгосрочный прогноз погоды по России и другим странам хСССР на ноябрь 2019 года
Сравнение прогнозируемой аномалии приземной температуры воздуха на ноябрь 2019 года по разным моделям
Предварительный прогноз на зиму 2019/2020 года




Погода Пушкинские Горы - сегодня

Время (UTC), дата Ветер
(°,м/с) 
Видим.   Явления Облачность Т
(°С)
Тd
(°С)
f(%) Тe
(°С)
Pmin
(гПа)
dP
(гПа)
Po
(мм)
O2
(г/м3)
Тmin Tmax R s Состояние
почвы
00 20.11.19 150 (ЮВ) 10 км  {морось}  10/10 300 м 
[St]
+3 +2.5 97 +2  1030.3  0.8  763  304           
03 20.11.19 130 (ЮВ) 10 км    10/10 300 м 
[St]
+3.3 +2.5 94 +3  1031  0.7  764  304  +2.1    0.0     
06 20.11.19 140 (ЮВ) 10 км    10/10 300 м 
[Frnb|Ns]
+3.7 +3 95 +2  1032.2  1.2  765  304  +2.1    0.0     
09 20.11.19 140 (ЮВ) 10 км    10/10 300 м 
[Frnb|Ns]
+4.1 +3.1 93 +3  1033.9  1.7  766  304           
12 20.11.19 150 (ЮВ) 20000 м    10/10 600 м кучево-дожд. 
[Cb cap]
+4.3 +2.8 90 +3  1034.4  0.6  766  304           
15 20.11.19 150 (ЮВ) 20000 м    10/10 600 м 
[Sc]
+3.5 +2 90 +2  1035.4  0.9  767  305           
18 20.11.19 160 (Ю) 20000 м    10/10 600 м 
[Sc]
+2.5 +0.6 87 +1  1036.2  0.8  768  306    +4.3       
21 20.11.19 140 (ЮВ) 20000 м    10/10 600 м 
[Sc]
+3.1 +0.2 81 +2  1036.8  0.6  768  306           
00 21.11.19 170 (Ю) 4{10}  20000 м    10/10 600 м 
[Sc]
+3.9 +1.1 82 +2  1037.5  0.7  769  305           
03 21.11.19 150 (ЮВ) 20000 м    8/4 600 м кучево-дожд., средняя 
[Cb cap|Ac trans]
+4.1 +1.6 84 +3  1037.4  -0.1  768  305  +2.5         
06 21.11.19 140 (ЮВ) 20000 м  {ливн. осадки}  9/9 600 м кучево-дожд. 
[Cb cap]
+4.3 +2 85 +3  1037.3  -0.1  768  305  +2.5    0.0     
09 21.11.19 170 (Ю) 20000 м    10/10 600 м кучево-дожд. 
[Cb cap]
+4.4 -0.1 73 +2  1037.9  0.6  769  305           
12 21.11.19 170 (Ю) 20000 м    10/10 600 м 
[Sc]
+3.9 -1.3 69 +2  1037.4  -0.5  768  305           
15 21.11.19 160 (Ю) 4{10}  20000 м    9/9 600 м кучево-дожд. 
[Cb cap]
+2.4 -2.9 68 1037.8  0.3  769  307      0.0     
18 21.11.19 170 (Ю) 4{10}  20000 м    9/9 600 м 
[Sc]
+1.6 -4.2 65 -1  1037.5  -0.3  768  308    +4.5       
21 21.11.19 180 (Ю) 20000 м    9/9 600 м 
[Sc]
-0.1 -5.7 66 -3  1037.6  768  310           
00 22.11.19 190 (Ю) 4{10}  20000 м    3/3 600 м 
[Sc]
-2 -7.4 66 -5  1037.2  -0.5  768  313           
03 22.11.19 160 (Ю) 20000 м    ясно 
-4.3 -8.5 72 -8  1037.1  -0.2  768  315  -4.4         
06 22.11.19 170 (Ю) 20000 м    1/0 верхняя 
[Ci fib]
-5.9 -9.8 74 -9  1037.5  0.3  768  317  -6         
09 22.11.19 180 (Ю) 20000 м    3/0 верхняя 
[Ci fib]
-4.1 -9.1 68 -7  1037.4  768  315           
12 22.11.19 170 (Ю) 20000 м    5/0 верхняя 
[Ci fib]
-2.1 -12.2 46 -5  1035.9  -1.4  767  313           
15 22.11.19 170 (Ю) 4{10}  20000 м    3/0 средняя, верхняя 
[Ac cast|Ci fib]
-3.4 -14 44 -6  1035.6  -0.4  767  314           
18 22.11.19 170 (Ю) 4{10}  20000 м    ясно 
-4.1 -14.1 46 -7  1035.6  767  315    -2       
21 22.11.19 180 (Ю) 20000 м    ясно 
-5 -13.4 52 -9  1035.9  0.3  767  316           
00 23.11.19 180 (Ю) 20000 м    ясно 
-5.8 -13.1 56 -9  1035.5  -0.5  767  317           
Время (UTC), дата Ветер
(°,м/с) 
Видим.   Явления Облачность Т
(°С)
Тd
(°С)
f(%) Тe
(°С)
Pmin
(гПа)
dP
(гПа)
Po
(мм)
O2
(г/м3)
Тmin Tmax R s Состояние
почвы

Для получения пояснительной информации подведите курсор к названию столбца.

ПОГОДА Пушкинские Горы - архив

Всё, что Вы хотите узнать о погоде Пушкинские Горы - удобно и подробно!

Выберите нужную дату (начиная с 1 января 2019* года) и нажмите кнопку "Найти".
Будут отображены архивные сводки погоды по пункту Пушкинские Горы, начиная с указанной даты.


Отображать данные в формате CSV (для использования в таблицах Excel)


Внимание! Наш архив погоды предназначен исключительно для личного некоммерческого использования в познавательных целях. Если Вам необходимы официальные справки о состоянии погоды (для производственных, юридических, коммерческих и т.п. целей), обращайтесь в органы Росгидромета.

*Примечание: данная дата относится к архиву по метеостанциям СССР (Россия, СНГ, Балтия).
Архив по метеостанциям Зарубежной Европы и Азии (кроме Китая) хранится 10 дней, по другим регионам земного шара (Китай, Африка, Америка, Австралия, Океания) - 1 день.

Пушкинские Горы - район местоположения метеостанции


Название, широта, долгота, высота метеостанции:
Пушкинские Горы 57°ш. 28.9°д. 108 м над ур. моря [Российская Федерация]

Дополнительная информация

В oтличие oт бoльшинства пoгoдных сайтoв мы публикуем пoдрoбную метеoинфoрмацию в детальнoм прoфессиoнальнoм фoрмате.

Характеристики температуры и влажнoсти вoздуха измеряются на высoте 2 м в тени вдали oт зданий и деревьев.
Скoрoсть ветра измеряется на высoте 10 м (на урoвне рoста челoвека скoрoсть ветра ниже в 1.5-2 раза). Если метеoстанция нахoдится в гoрoде или в лесу, тo скoрoсть ветра занижена на 2-4 м/с пo сравнению с oткрытым местoм. Скoрoсть ветра над акватoриями крупных рек и oзёр, а также на вершинах хoлмoв на 2-5 м/с выше, чем в oбычных услoвиях.
Атмoсфернoе давление в разных тoчках местнoсти мoжет значительнo oтличаться oт давления на метеoстанции, в зависимoсти oт услoвий рельефа (при пoдъёме на 10 м давление пoнижается примернo на 1 мм рт.ст.).